Location: Grange Rosano
(44.4500°N, 6.9667°E)
Time: 21:20:36
(UTC+00:00)

SL-16 R/B - Pass Details

Date: 26 May 2022
Orbit: 839 x 850 km, 71.0° (Epoch: 01 July)

Event Time Altitude Azimuth Distance (km) Brightness Sun altitude
Exits shadow 00:16:31 19° 122° (ESE) 1,893 3.8 -23.6°
Maximum altitude 00:18:02 21° 100° (E) 1,791 3.9 -23.5°
Drops below altitude 10° 00:22:11 10° 53° (NE) 2,470 5.3 -23.3°
Sets 00:25:11 0° 38° (NE) 3,412 6.5 -23.2°
